1528480800.15,57113,21.75,74236.0,6.05,2.31,-3.47,0,*52
1528480801.38,57114,21.75,74232.8,6.05,2.31,-3.47,0,*55
1528480802.61,57115,21.69,74232.5,6.05,2.27,-3.47,0,*53
1528480803.84,57116,21.69,74236.0,6.05,2.27,-3.51,0,*57
1528480805.07,57117,21.75,74232.8,6.03,2.25,-3.55,0,*56
1528480806.33,57118,21.69,74234.3,6.05,2.21,-3.59,0,*57
1528480807.57,57119,21.75,74236.8,6.05,2.27,-3.59,0,*50
1528480808.82,57120,21.69,74232.0,6.05,2.21,-3.59,0,*5C
1528480810.06,57121,21.69,74234.5,6.03,2.17,-3.63,0,*57
1528480811.3,57122,21.69,74236.3,6.03,2.17,-3.55,0,*51
1528480812.53,57123,21.75,74234.5,6.03,2.25,-3.55,0,*51
1528480813.76,57124,21.69,74232.0,6.03,2.25,-3.63,0,*53
1528480815.02,57125,21.75,74232.0,6.01,2.17,-3.63,0,*51
1528480816.26,57126,21.69,74232.5,6.03,2.17,-3.67,0,*54
1528480817.49,57127,21.75,74238.8,6.03,2.13,-3.67,0,*51
1528480818.76,57128,21.75,74236.0,6.01,2.17,-3.63,0,*5C
1528480820.02,57129,21.75,74234.8,6.01,2.17,-3.67,0,*59
1528480821.25,57130,21.69,74230.8,6.03,2.13,-3.67,0,*57
1528480822.47,57131,21.69,74234.8,6.03,2.17,-3.75,0,*51
1528480823.73,57132,21.69,74232.0,6.01,2.13,-3.67,0,*57
1528480824.97,57133,21.69,74234.3,6.01,2.13,-3.75,0,*55
1528480826.2,57134,21.75,74234.8,6.03,2.13,-3.67,0,*53
1528480827.43,57135,21.69,74234.5,6.03,2.13,-3.67,0,*52
1528480828.68,57136,21.75,74238.5,6.01,2.17,-3.75,0,*54
1528480829.9,57137,21.69,74232.0,6.03,2.17,-3.75,0,*57
1528480831.12,57138,21.75,74234.8,6.03,2.17,-3.87,0,*55
1528480832.34,57139,21.69,74234.0,6.03,2.17,-3.79,0,*55
1528480833.55,57140,21.69,74232.5,6.03,2.05,-3.79,0,*58
1528480834.79,57141,21.75,74236.0,6.01,2.05,-3.87,0,*5A
1528480836.01,57142,21.69,74234.3,6.03,2.17,-3.87,0,*58
1528480837.22,57143,21.69,74232.0,6.03,2.13,-3.87,0,*5D
1528480838.45,57144,21.69,74232.0,6.01,2.05,-3.87,0,*5F
1528480839.69,57145,21.69,74234.3,6.01,2.05,-3.87,0,*5E
1528480840.9,57146,21.69,74234.3,6.03,2.05,-3.87,0,*5F
1528480842.16,57147,21.75,74236.0,6.01,2.05,-4.01,0,*55
1528480843.38,57148,21.75,74234.8,6.03,2.05,-3.91,0,*56
1528480844.65,57149,21.69,74234.3,6.01,1.93,-4.01,0,*57
1528480845.91,57150,21.69,74234.0,6.01,2.01,-4.01,0,*57
1528480847.17,57151,21.69,74234.5,6.01,2.01,-4.01,0,*56
1528480848.38,57152,21.69,74232.0,5.99,1.97,-3.95,0,*51
1528480849.6,57153,21.75,74234.8,6.03,2.01,-3.91,0,*58
1528480850.86,57154,21.75,74234.0,6.01,2.01,-4.01,0,*53
1528480852.13,57155,21.75,74234.3,6.01,2.05,-4.01,0,*56
1528480853.39,57156,21.75,74236.0,6.01,2.05,-4.01,0,*55
1528480854.63,57157,21.69,74232.8,6.01,2.13,-4.05,0,*57
1528480855.86,57158,21.75,74234.3,6.01,2.05,-4.09,0,*53
1528480857.1,57159,21.75,74234.0,6.01,2.01,-4.05,0,*5A
1528480858.32,57160,21.75,74236.0,5.99,2.01,-4.09,0,*5E
1528480859.53,57161,21.75,74236.3,5.99,2.01,-4.13,0,*54
1528480860.75,57162,21.75,74236.8,5.99,1.97,-4.13,0,*5B
1528480861.97,57163,21.69,74234.5,5.99,2.01,-4.09,0,*5D
1528480863.18,57164,21.69,74232.5,5.99,2.01,-4.13,0,*51
1528480864.4,57165,21.75,74236.5,5.99,1.89,-4.09,0,*58
1528480865.61,57166,21.69,74234.3,5.99,2.01,-4.13,0,*53
1528480866.83,57167,21.69,74230.3,5.99,1.89,-4.13,0,*51
1528480868.04,57168,21.75,74236.0,5.99,1.97,-4.13,0,*51
1528480869.26,57169,21.75,74236.0,5.99,1.97,-4.13,0,*50
1528480870.5,57170,21.75,74236.8,5.97,1.93,-4.17,0,*56
1528480871.73,57171,21.75,74232.5,5.97,1.93,-4.17,0,*57
1528480872.96,57172,21.69,74230.3,5.97,1.93,-4.17,0,*54
1528480874.18,57173,21.69,74232.0,5.99,1.97,-4.13,0,*5B
1528480875.42,57174,21.69,74232.3,5.97,1.93,-4.09,0,*5D
1528480876.64,57175,21.75,74236.3,5.99,1.89,-4.21,0,*53
1528480877.86,57176,21.75,74234.8,5.99,1.97,-4.21,0,*5F
1528480879.08,57177,21.69,74232.0,5.99,1.89,-4.21,0,*51
1528480880.32,57178,21.75,74232.5,5.97,1.93,-4.25,0,*5F
1528480881.56,57179,21.69,74234.3,5.97,1.85,-4.25,0,*59
1528480882.8,57180,21.69,74230.5,5.97,1.93,-4.25,0,*58
1528480884.05,57181,21.69,74234.3,5.97,1.85,-4.25,0,*5E
1528480885.29,57182,21.75,74234.8,5.97,1.93,-4.25,0,*5A
1528480886.53,57183,21.69,74234.3,5.97,1.85,-4.25,0,*5C
1528480887.78,57184,21.75,74238.0,5.97,1.85,-4.29,0,*57
1528480889.02,57185,21.75,74232.8,5.97,1.93,-4.25,0,*5D
1528480890.26,57186,21.69,74230.8,5.97,1.85,-4.25,0,*59
1528480891.51,57187,21.75,74234.3,5.97,1.85,-4.25,0,*58
1528480892.75,57188,21.75,74236.3,5.97,1.93,-4.25,0,*50
1528480893.99,57189,21.75,74234.3,5.97,1.93,-4.25,0,*51
1528480895.24,57190,21.75,74234.5,5.97,1.85,-4.29,0,*52
1528480896.48,57191,21.69,74234.3,5.97,1.93,-4.29,0,*54
1528480897.69,57192,21.75,74234.5,5.95,1.93,-4.29,0,*55
1528480898.92,57193,21.75,74232.5,5.95,1.85,-4.29,0,*53
1528480900.14,57194,21.75,74232.8,5.95,1.85,-4.29,0,*54
1528480901.36,57195,21.75,74234.5,5.95,1.85,-4.29,0,*55
1528480902.57,57196,21.75,74236.8,5.93,1.83,-4.33,0,*5D
1528480903.8,57197,21.75,74232.8,5.95,1.85,-4.29,0,*57
1528480905.02,57198,21.75,74232.8,5.95,1.85,-4.25,0,*54
1528480906.23,57199,21.75,74234.0,5.93,1.83,-4.33,0,*52
1528480907.46,57200,21.75,74234.8,5.95,1.85,-4.29,0,*5A
1528480908.68,57201,21.69,74234.3,5.95,1.85,-4.25,0,*57
1528480909.9,57202,21.69,74234.8,5.95,1.85,-4.29,0,*58
1528480911.12,57203,21.75,74232.8,5.93,1.83,-4.33,0,*52
1528480912.33,57204,21.69,74232.3,5.93,1.83,-4.33,0,*55
1528480913.55,57205,21.75,74232.8,5.95,1.85,-4.29,0,*5F
1528480914.77,57206,21.69,74234.8,5.93,1.83,-4.33,0,*57
1528480915.99,57207,21.75,74234.8,5.95,1.85,-4.29,0,*5D
1528480917.2,57208,21.75,74234.8,5.93,1.83,-4.33,0,*59
1528480918.43,57209,21.75,74236.8,5.95,1.85,-4.29,0,*53
1528480919.65,57210,21.75,74234.0,5.95,1.85,-4.37,0,*54
1528480920.87,57211,21.69,74232.5,5.93,1.83,-4.41,0,*54
1528480922.09,57212,21.69,74230.3,5.95,1.85,-4.37,0,*56
1528480923.31,57213,21.75,74234.5,5.93,1.83,-4.41,0,*56
1528480924.49,57214,21.75,74236.3,5.91,1.83,-4.41,0,*53
1528480925.71,57215,21.75,74236.0,5.93,1.79,-4.45,0,*51
1528480926.9,57216,21.75,74236.0,5.95,1.75,-4.37,0,*5D
1528480928.12,57217,21.75,74236.0,5.93,1.79,-4.45,0,*53
1528480929.34,57218,21.75,74234.8,5.93,1.79,-4.41,0,*58
1528480930.55,57219,21.75,74236.0,5.93,1.79,-4.45,0,*5D
1528480931.77,57220,21.69,74232.0,5.93,1.79,-4.41,0,*53
1528480932.97,57221,21.75,74234.5,5.91,1.79,-4.41,0,*50
1528480934.16,57222,21.75,74234.3,5.91,1.79,-4.41,0,*53
1528480935.35,57223,21.75,74238.0,5.91,1.79,-4.41,0,*52
1528480936.54,57224,21.75,74234.0,5.91,1.79,-4.45,0,*51
1528480937.76,57225,21.69,74228.5,5.93,1.79,-4.41,0,*56
1528480939.0,57226,21.75,74234.5,5.93,1.71,-4.45,0,*59
1528480940.19,57227,21.75,74234.0,5.95,1.83,-4.41,0,*57
1528480941.4,57228,21.75,74238.3,5.93,1.79,-4.45,0,*5F
1528480942.62,57229,21.75,74232.3,5.93,1.79,-4.53,0,*59
1528480943.82,57230,21.75,74236.0,5.91,1.79,-4.53,0,*53
1528480945.04,57231,21.75,74232.8,5.91,1.71,-4.41,0,*59
1528480946.25,57232,21.75,74232.5,5.91,1.71,-4.45,0,*5E
1528480947.46,57233,21.75,74236.0,5.93,1.79,-4.45,0,*55
1528480948.65,57234,21.75,74232.3,5.91,1.79,-4.45,0,*50
1528480949.89,57235,21.75,74232.5,5.89,1.67,-4.49,0,*5B
1528480951.11,57236,21.75,74236.8,5.91,1.71,-4.53,0,*5D
1528480952.32,57237,21.75,74238.0,5.89,1.75,-4.61,0,*50
1528480953.54,57238,21.69,74234.8,5.89,1.75,-4.57,0,*5A
1528480954.76,57239,21.75,74234.3,5.91,1.71,-4.53,0,*52
1528480955.98,57240,21.75,74236.5,5.91,1.71,-4.53,0,*5C
1528480957.19,57241,21.75,74234.3,5.89,1.75,-4.61,0,*51
1528480958.43,57242,21.75,74234.3,5.89,1.67,-4.61,0,*51
1528480959.67,57243,21.75,74234.8,5.89,1.67,-4.57,0,*55
1528480960.89,57244,21.75,74234.0,5.91,1.71,-4.53,0,*58
1528480962.08,57245,21.75,74234.3,5.91,1.79,-4.53,0,*51
1528480963.3,57246,21.75,74234.0,5.89,1.75,-4.57,0,*53
1528480964.49,57247,21.75,74234.3,5.91,1.79,-4.53,0,*53
1528480965.73,57248,21.69,74234.3,5.89,1.67,-4.57,0,*5E
1528480966.97,57249,21.75,74232.0,5.89,1.67,-4.61,0,*5A
1528480968.23,57250,21.75,74232.0,5.89,1.67,-4.69,0,*5A
1528480969.47,57251,21.69,74232.5,5.89,1.67,-4.61,0,*53
1528480970.71,57252,21.75,74236.3,5.89,1.55,-4.61,0,*51
1528480971.92,57253,21.69,74230.8,5.91,1.67,-4.57,0,*5D
1528480973.19,57254,21.75,74234.3,5.89,1.63,-4.69,0,*5A
1528480974.45,57255,21.75,74234.8,5.89,1.67,-4.69,0,*5F
1528480975.71,57256,21.69,74230.8,5.89,1.67,-4.69,0,*5C
1528480976.98,57257,21.75,74232.8,5.89,1.55,-4.69,0,*5C
1528480978.24,57258,21.75,74234.0,5.89,1.63,-4.69,0,*56
1528480979.51,57259,21.69,74232.3,5.89,1.63,-4.69,0,*57
1528480980.75,57260,21.75,74232.3,5.85,1.51,-4.77,0,*5F
1528480982.0,57261,21.75,74234.8,5.85,1.51,-4.73,0,*5A
1528480983.23,57262,21.75,74236.3,5.83,1.59,-4.73,0,*57
1528480984.48,57263,21.75,74232.8,5.85,1.59,-4.77,0,*54
1528480985.73,57264,21.69,74234.5,5.85,1.51,-4.73,0,*5F
1528480986.98,57265,21.75,74234.5,5.85,1.51,-4.73,0,*5E
1528480988.23,57266,21.69,74234.3,5.85,1.59,-4.73,0,*55
1528480989.47,57267,21.75,74234.8,5.85,1.51,-4.77,0,*58
1528480990.7,57268,21.75,74236.0,5.83,1.59,-4.77,0,*59
1528480991.93,57269,21.75,74234.5,5.83,1.59,-4.73,0,*5C
1528480993.17,57270,21.75,74232.8,5.89,1.67,-4.61,0,*50
1528480994.43,57271,21.75,74236.3,5.89,1.63,-4.69,0,*5D
1528480995.68,57272,21.75,74232.0,5.85,1.59,-4.73,0,*50
1528480996.93,57273,21.75,74234.5,5.85,1.59,-4.73,0,*51
1528480998.16,57274,21.75,74236.3,5.83,1.51,-4.73,0,*58
1528480999.38,57275,21.69,74234.8,5.83,1.59,-4.73,0,*51
1528481000.61,57276,21.69,74234.8,5.83,1.59,-4.73,0,*52
1528481001.86,57277,21.69,74232.0,5.85,1.51,-4.85,0,*54
1528481003.11,57278,21.69,74234.8,5.85,1.51,-4.77,0,*56
1528481004.34,57279,21.75,74236.8,5.83,1.51,-4.77,0,*51
1528481005.57,57280,21.75,74232.8,5.83,1.59,-4.73,0,*5B
1528481006.82,57281,21.75,74234.8,5.85,1.51,-4.77,0,*50
1528481008.05,57282,21.75,74234.8,5.83,1.51,-4.77,0,*55
1528481009.27,57283,21.75,74232.0,5.83,1.51,-4.73,0,*50
1528481010.5,57284,21.75,74232.0,5.83,1.51,-4.77,0,*53
1528481011.75,57285,21.75,74234.0,5.85,1.59,-4.77,0,*5C
1528481012.98,57286,21.75,74234.5,5.83,1.51,-4.77,0,*51
1528481014.23,57287,21.69,74234.5,5.85,1.51,-4.85,0,*5B
1528481015.44,57288,21.69,74234.3,5.83,1.41,-4.85,0,*53
1528481016.69,57289,21.75,74236.3,5.85,1.51,-4.89,0,*59
1528481017.92,57290,21.75,74234.8,5.83,1.47,-4.85,0,*5C
1528481019.15,57291,21.69,74234.5,5.83,1.47,-4.85,0,*5D
1528481020.39,57292,21.75,74236.8,5.83,1.47,-4.85,0,*5E
1528481021.64,57293,21.75,74236.3,5.85,1.47,-4.85,0,*59
1528481022.87,57294,21.75,74236.5,5.83,1.47,-4.77,0,*55
1528481024.07,57295,21.75,74232.5,5.83,1.41,-4.85,0,*5F
1528481025.31,57296,21.75,74236.0,5.83,1.47,-4.85,0,*5A
1528481026.51,57297,21.75,74238.3,5.83,1.41,-4.89,0,*51
1528481027.72,57298,21.75,74234.5,5.83,1.41,-4.89,0,*5E
1528481028.97,57299,21.75,74234.5,5.85,1.47,-4.85,0,*53
1528481030.21,57300,21.75,74234.0,5.83,1.47,-4.85,0,*54
1528481031.38,57301,21.75,74238.0,5.83,1.41,-4.99,0,*5E
1528481032.62,57302,21.69,74230.8,5.83,1.47,-4.85,0,*56
1528481033.82,57303,21.75,74232.8,5.83,1.41,-4.85,0,*51
1528481035.03,57304,21.69,74232.0,5.83,1.41,-4.89,0,*5A
1528481036.28,57305,21.75,74236.0,5.81,1.43,-4.93,0,*50
1528481037.54,57306,21.75,74236.0,5.81,1.37,-4.89,0,*5B
1528481038.81,57307,21.69,74232.0,5.81,1.37,-4.89,0,*5A
1528481040.07,57308,21.75,74236.0,5.81,1.37,-4.93,0,*5E
1528481041.33,57309,21.75,74234.5,5.81,1.37,-4.93,0,*5F
1528481042.59,57310,21.75,74236.0,5.81,1.37,-4.89,0,*5C
1528481043.84,57311,21.75,74234.0,5.81,1.43,-4.89,0,*5E
1528481045.1,57312,21.75,74236.0,5.81,1.43,-4.89,0,*5D
1528481046.34,57313,21.69,74232.3,5.81,1.43,-4.93,0,*57
1528481047.6,57314,21.69,74232.0,5.81,1.37,-4.93,0,*53
1528481048.85,57315,21.69,74234.3,5.81,1.43,-4.93,0,*51
1528481050.1,57316,21.75,74234.3,5.81,1.43,-4.93,0,*52
1528481051.36,57317,21.75,74236.0,5.81,1.37,-4.93,0,*50
1528481052.62,57318,21.75,74234.5,5.81,1.37,-4.89,0,*54
1528481053.89,57319,21.75,74236.5,5.81,1.37,-4.89,0,*55
1528481055.12,57320,21.75,74232.0,5.83,1.51,-4.89,0,*5D
1528481056.38,57321,21.69,74232.3,5.81,1.37,-4.93,0,*55
1528481057.65,57322,21.75,74236.0,5.81,1.37,-5.07,0,*5A
1528481058.91,57323,21.69,74232.5,5.81,1.37,-4.89,0,*5C
1528481060.16,57324,21.75,74234.5,5.81,1.43,-4.93,0,*53
1528481061.41,57325,21.75,74238.3,5.81,1.43,-4.93,0,*52
1528481062.67,57326,21.69,74234.8,5.81,1.37,-4.93,0,*52
1528481063.91,57327,21.75,74236.0,5.79,1.37,-5.07,0,*58
1528481065.18,57328,21.69,74232.5,5.81,1.33,-5.07,0,*54
1528481066.44,57329,21.75,74238.0,5.81,1.29,-5.07,0,*5E
1528481067.71,57330,21.69,74234.3,5.81,1.37,-5.07,0,*59
1528481068.98,57331,21.75,74236.8,5.81,1.29,-5.03,0,*53
1528481070.25,57332,21.69,74232.3,5.81,1.33,-5.07,0,*5F
1528481071.49,57333,21.69,74234.5,5.79,1.33,-5.03,0,*5D
1528481072.76,57334,21.75,74236.5,5.81,1.33,-5.07,0,*59
1528481074.0,57335,21.75,74238.5,5.79,1.33,-5.07,0,*5F
1528481075.27,57336,21.75,74236.3,5.81,1.29,-5.07,0,*50
1528481076.51,57337,21.75,74236.0,5.79,1.29,-5.07,0,*56
1528481077.78,57338,21.75,74236.5,5.81,1.29,-5.07,0,*5E
1528481079.04,57339,21.75,74238.8,5.81,1.29,-5.07,0,*5F
1528481080.31,57340,21.75,74236.5,5.81,1.29,-5.07,0,*51
1528481081.57,57341,21.75,74232.8,5.81,1.33,-5.07,0,*5B
1528481082.82,57342,21.75,74236.5,5.79,1.29,-5.07,0,*54
1528481084.09,57343,21.75,74236.5,5.81,1.29,-5.07,0,*52
1528481085.35,57344,21.75,74236.0,5.81,1.33,-5.15,0,*5D
1528481086.61,57345,21.75,74236.3,5.81,1.21,-5.15,0,*5F
1528481087.88,57346,21.69,74232.5,5.81,1.21,-5.15,0,*5C
1528481089.12,57347,21.75,74236.8,5.79,1.21,-5.19,0,*56
1528481090.36,57348,21.75,74236.5,5.79,1.21,-5.19,0,*59
1528481091.6,57349,21.75,74238.5,5.79,1.21,-5.15,0,*54
1528481092.84,57350,21.75,74238.3,5.79,1.17,-5.19,0,*55
1528481094.08,57351,21.75,74238.5,5.79,1.17,-5.15,0,*58
1528481095.31,57352,21.69,74234.5,5.79,1.17,-5.19,0,*57
1528481096.55,57353,21.75,74238.8,5.79,1.17,-5.19,0,*56
1528481097.81,57354,21.75,74238.5,5.81,1.17,-5.15,0,*5A
1528481099.02,57355,21.75,74238.5,5.79,1.05,-5.19,0,*53
1528481100.26,57356,21.69,74234.3,5.79,1.09,-5.23,0,*55
1528481101.51,57357,21.75,74234.0,5.79,1.09,-5.23,0,*54
1528481102.74,57358,21.69,74232.0,5.77,1.01,-5.27,0,*59
1528481103.94,57359,21.69,74236.3,5.77,1.01,-5.35,0,*5B
1528481105.18,57360,21.75,74234.5,5.77,1.01,-5.27,0,*52
1528481106.41,57361,21.75,74236.8,5.77,1.05,-5.23,0,*53
1528481107.62,57362,21.75,74236.0,5.77,1.01,-5.35,0,*53
1528481108.85,57363,21.75,74238.0,5.77,1.05,-5.27,0,*55
1528481110.09,57364,21.75,74236.0,5.77,1.01,-5.27,0,*56
1528481111.29,57365,21.75,74236.0,5.77,1.01,-5.35,0,*54
1528481112.49,57366,21.75,74236.3,5.77,1.05,-5.35,0,*53
1528481113.69,57367,21.75,74236.3,5.77,1.05,-5.35,0,*52
1528481114.87,57368,21.75,74236.8,5.75,1.05,-5.35,0,*5F
1528481116.09,57369,21.75,74238.3,5.75,1.05,-5.27,0,*5D
1528481117.33,57370,21.75,74236.0,5.75,1.09,-5.27,0,*59
1528481118.54,57371,21.75,74238.0,5.75,1.01,-5.27,0,*50
1528481119.8,57372,21.75,74236.5,5.77,1.13,-5.27,0,*52
1528481121.01,57373,21.75,74236.0,5.75,0.97,-5.31,0,*6B
1528481122.25,57374,21.75,74236.0,5.77,1.01,-5.23,0,*53
1528481123.46,57375,21.69,74234.3,5.75,1.01,-5.31,0,*53
1528481124.63,57376,21.75,74238.8,5.75,0.97,-5.39,0,*66
1528481125.84,57377,21.75,74238.5,5.77,1.05,-5.35,0,*53
1528481127.07,57378,21.75,74238.0,5.77,1.05,-5.27,0,*5F
1528481128.25,57379,21.69,74232.5,5.75,0.97,-5.39,0,*69
1528481129.43,57380,21.75,74236.5,5.75,0.97,-5.39,0,*6F
1528481130.6,57381,21.75,74236.5,5.75,0.97,-5.39,0,*6E
1528481131.78,57382,21.75,74234.3,5.75,1.01,-5.39,0,*53
1528481132.96,57383,21.75,74236.8,5.75,1.01,-5.39,0,*52
1528481134.17,57384,21.75,74238.8,5.75,0.97,-5.31,0,*63
1528481135.41,57385,21.75,74238.3,5.77,1.05,-5.23,0,*59
1528481136.62,57386,21.75,74236.5,5.75,1.01,-5.31,0,*5F
1528481137.8,57387,21.75,74238.5,5.75,1.01,-5.39,0,*56
1528481139.0,57388,21.75,74234.3,5.75,0.97,-5.31,0,*6F
1528481140.21,57389,21.75,74236.8,5.73,1.01,-5.39,0,*5E
1528481141.41,57390,21.75,74236.8,5.75,0.97,-5.31,0,*66
1528481142.62,57391,21.75,74238.5,5.75,1.01,-5.31,0,*59
1528481143.86,57392,21.75,74236.0,5.75,0.91,-5.31,0,*62
1528481145.06,57393,21.75,74238.5,5.75,0.97,-5.31,0,*65
1528481146.24,57394,21.75,74238.3,5.75,0.97,-5.39,0,*6A
1528481147.45,57395,21.75,74232.8,5.75,0.91,-5.39,0,*6D
1528481148.65,57396,21.75,74236.5,5.75,0.87,-5.39,0,*69
1528481149.85,57397,21.75,74236.3,5.75,0.91,-5.39,0,*6F
1528481151.08,57398,21.75,74238.8,5.73,0.91,-5.43,0,*6B
1528481152.31,57399,21.75,74238.0,5.73,0.91,-5.43,0,*6A
1528481153.53,57400,21.69,74234.3,5.73,0.87,-5.39,0,*67
1528481154.76,57401,21.75,74238.0,5.73,0.91,-5.39,0,*61
1528481155.99,57402,21.75,74238.5,5.73,0.91,-5.39,0,*62
1528481157.21,57403,21.75,74236.8,5.73,0.87,-5.43,0,*69
1528481158.44,57404,21.75,74238.3,5.73,0.87,-5.43,0,*6E
1528481159.66,57405,21.75,74234.5,5.73,0.87,-5.43,0,*6F
1528481160.89,57406,21.75,74236.8,5.73,0.87,-5.51,0,*6F
1528481162.09,57407,21.69,74234.5,5.71,0.83,-5.55,0,*6C
1528481163.29,57408,21.75,74236.5,5.71,0.83,-5.55,0,*63
1528481164.52,57409,21.75,74236.0,5.73,0.91,-5.43,0,*64
1528481165.74,57410,21.75,74236.0,5.73,0.87,-5.43,0,*6B
1528481166.97,57411,21.75,74238.5,5.73,0.79,-5.51,0,*68
1528481168.17,57412,21.75,74238.5,5.71,0.75,-5.55,0,*61
1528481169.39,57413,21.75,74238.8,5.73,0.75,-5.51,0,*66
1528481170.58,57414,21.75,74238.3,5.71,0.83,-5.47,0,*6D
1528481171.78,57415,21.75,74236.8,5.71,0.83,-5.55,0,*6F
1528481173.01,57416,21.75,74236.5,5.73,0.87,-5.51,0,*6E
1528481174.24,57417,21.75,74238.0,5.73,0.87,-5.51,0,*6F
1528481175.47,57418,21.69,74232.8,5.73,0.79,-5.51,0,*61
1528481176.67,57419,21.75,74236.0,5.71,0.71,-5.55,0,*6E
1528481177.89,57420,21.75,74236.3,5.71,0.75,-5.61,0,*67
1528481179.11,57421,21.75,74236.8,5.71,0.75,-5.61,0,*66
1528481180.3,57422,21.75,74236.8,5.71,0.75,-5.55,0,*62
1528481181.53,57423,21.75,74232.8,5.71,0.71,-5.61,0,*60
1528481182.72,57424,21.69,74232.8,5.71,0.75,-5.55,0,*64
1528481183.92,57425,21.69,74232.8,5.71,0.75,-5.55,0,*65
1528481185.14,57426,21.75,74238.5,5.71,0.75,-5.61,0,*61
1528481186.36,57427,21.75,74236.3,5.71,0.75,-5.61,0,*60
1528481187.58,57428,21.75,74240.3,5.71,0.71,-5.69,0,*63
1528481188.8,57429,21.75,74238.5,5.71,0.71,-5.69,0,*62
1528481190.02,57430,21.75,74238.0,5.71,0.71,-5.61,0,*62
1528481191.24,57431,21.75,74236.3,5.71,0.71,-5.61,0,*63
1528481192.46,57432,21.75,74236.3,5.71,0.75,-5.61,0,*64
1528481193.69,57433,21.75,74236.0,5.71,0.71,-5.61,0,*61
1528481194.91,57434,21.75,74238.5,5.71,0.71,-5.69,0,*6E
1528481196.15,57435,21.69,74234.5,5.73,0.75,-5.65,0,*65
1528481197.37,57436,21.75,74236.8,5.71,0.71,-5.61,0,*64
1528481198.62,57437,21.75,74238.8,5.69,0.71,-5.69,0,*64
1528481199.84,57438,21.75,74236.8,5.71,0.71,-5.69,0,*62
1528481201.05,57439,21.75,74236.8,5.71,0.63,-5.69,0,*60
1528481202.29,57440,21.75,74238.5,5.69,0.63,-5.69,0,*67
1528481203.54,57441,21.75,74236.3,5.69,0.71,-5.61,0,*6D
1528481204.79,57442,21.75,74236.0,5.69,0.71,-5.61,0,*6E
1528481206.04,57443,21.75,74238.5,5.69,0.71,-5.69,0,*67
1528481207.28,57444,21.75,74236.3,5.69,0.71,-5.69,0,*60
1528481208.5,57445,21.75,74236.8,5.67,0.71,-5.65,0,*63
1528481209.71,57446,21.75,74238.5,5.67,0.67,-5.73,0,*60
1528481210.96,57447,21.75,74236.0,5.69,0.63,-5.69,0,*60
1528481212.17,57448,21.69,74232.8,5.67,0.59,-5.73,0,*63
1528481213.38,57449,21.69,74236.0,5.67,0.67,-5.73,0,*6F
1528481214.6,57450,21.75,74234.8,5.67,0.59,-5.73,0,*6A
1528481215.84,57451,21.75,74238.5,5.69,0.59,-5.73,0,*65
1528481217.06,57452,21.75,74238.0,5.67,0.55,-5.73,0,*64
1528481218.28,57453,21.69,74234.8,5.67,0.59,-5.73,0,*69
1528481219.5,57454,21.75,74238.5,5.67,0.55,-5.73,0,*62
1528481220.71,57455,21.75,74238.5,5.67,0.59,-5.73,0,*6F
1528481221.93,57456,21.75,74236.8,5.67,0.59,-5.73,0,*6C
1528481223.15,57457,21.75,74236.3,5.67,0.59,-5.77,0,*69
1528481224.38,57458,21.75,74238.3,5.69,0.59,-5.73,0,*6C
1528481225.6,57459,21.75,74238.3,5.67,0.47,-5.77,0,*68
1528481226.83,57460,21.75,74238.8,5.67,0.55,-5.85,0,*6C
1528481228.07,57461,21.75,74238.5,5.69,0.59,-5.73,0,*66
1528481229.3,57462,21.75,74236.8,5.67,0.47,-5.85,0,*6D
1528481230.52,57463,21.75,74238.0,5.67,0.47,-5.89,0,*60
1528481231.75,57464,21.75,74238.8,5.67,0.47,-5.89,0,*67
1528481232.98,57465,21.75,74236.3,5.67,0.55,-5.89,0,*65
1528481234.2,57466,21.75,74236.5,5.67,0.47,-5.85,0,*69
1528481235.43,57467,21.75,74236.8,5.67,0.47,-5.85,0,*68
1528481236.65,57468,21.75,74236.8,5.67,0.47,-5.85,0,*67
1528481237.85,57469,21.75,74236.5,5.67,0.43,-5.85,0,*62
1528481239.07,57470,21.75,74238.3,5.67,0.47,-5.77,0,*63
1528481240.29,57471,21.75,74236.5,5.67,0.51,-5.85,0,*68
1528481241.51,57472,21.75,74236.0,5.67,0.47,-5.77,0,*61
1528481242.74,57473,21.75,74236.0,5.67,0.47,-5.85,0,*6D
1528481243.93,57474,21.75,74236.0,5.67,0.43,-5.85,0,*6E
1528481245.15,57475,21.75,74236.5,5.63,0.41,-5.93,0,*6E
1528481246.34,57476,21.69,74236.8,5.63,0.43,-5.93,0,*6F
1528481247.56,57477,21.75,74238.8,5.63,0.41,-5.93,0,*6C
1528481248.76,57478,21.75,74238.0,5.63,0.43,-5.93,0,*61
1528481249.98,57479,21.75,74238.5,5.63,0.41,-5.93,0,*62
1528481251.17,57480,21.75,74236.3,5.63,0.43,-5.89,0,*6D
1528481252.39,57481,21.75,74238.5,5.63,0.41,-5.89,0,*6E
1528481253.61,57482,21.75,74236.8,5.63,0.41,-5.89,0,*6D
1528481254.81,57483,21.75,74236.8,5.67,0.43,-5.85,0,*66
1528481256.03,57484,21.75,74242.0,5.67,0.47,-5.89,0,*69
1528481257.23,57485,21.75,74238.3,5.67,0.43,-5.89,0,*6C
1528481258.44,57486,21.75,74236.0,5.63,0.33,-5.93,0,*67
1528481259.66,57487,21.75,74238.8,5.63,0.33,-5.93,0,*66
1528481260.85,57488,21.75,74238.5,5.63,0.41,-6.01,0,*64
1528481262.07,57489,21.75,74238.3,5.61,0.33,-6.01,0,*62
1528481263.31,57490,21.75,74236.8,5.61,0.33,-5.93,0,*62
1528481264.55,57491,21.75,74240.3,5.61,0.29,-5.93,0,*68
1528481265.74,57492,21.75,74236.8,5.63,0.29,-6.01,0,*61
1528481266.98,57493,21.69,74238.0,5.61,0.33,-5.93,0,*61
1528481268.2,57494,21.69,74236.3,5.63,0.41,-5.93,0,*61
1528481269.39,57495,21.75,74236.3,5.63,0.29,-6.01,0,*66
1528481270.61,57496,21.75,74238.3,5.63,0.33,-5.93,0,*66
1528481271.83,57497,21.75,74236.0,5.63,0.33,-5.93,0,*67
1528481273.05,57498,21.75,74236.8,5.63,0.33,-5.93,0,*68
1528481274.24,57499,21.75,74236.3,5.63,0.33,-6.01,0,*61
1528481275.43,57500,21.75,74236.8,5.63,0.29,-6.01,0,*6B
1528481276.61,57501,21.75,74240.8,5.63,0.33,-6.01,0,*61
1528481277.83,57502,21.75,74236.8,5.61,0.29,-6.05,0,*6F
1528481279.04,57503,21.75,74242.0,5.61,0.29,-6.05,0,*6E
1528481280.23,57504,21.75,74238.5,5.63,0.25,-6.05,0,*67
1528481281.45,57505,21.75,74236.8,5.61,0.25,-6.05,0,*64
1528481282.64,57506,21.75,74236.5,5.63,0.29,-6.01,0,*6D
1528481283.83,57507,21.69,74236.0,5.63,0.29,-6.05,0,*68
1528481285.04,57508,21.75,74242.0,5.61,0.33,-6.01,0,*6A
1528481286.25,57509,21.75,74238.5,5.61,0.17,-6.05,0,*69
1528481287.44,57510,21.75,74238.8,5.63,0.33,-6.05,0,*65
1528481288.66,57511,21.75,74242.0,5.61,0.29,-6.01,0,*69
1528481289.85,57512,21.75,74236.5,5.63,0.25,-6.05,0,*60
1528481291.06,57513,21.75,74236.3,5.61,0.17,-6.05,0,*62
1528481292.27,57514,21.75,74236.8,5.61,0.17,-6.13,0,*62
1528481293.46,57515,21.75,74238.0,5.63,0.25,-6.13,0,*60
1528481294.65,57516,21.75,74238.5,5.63,0.17,-6.05,0,*65
1528481295.86,57517,21.75,74238.5,5.61,0.17,-6.05,0,*66
1528481297.07,57518,21.75,74242.0,5.61,0.17,-6.13,0,*6E
1528481298.29,57519,21.75,74240.3,5.61,0.25,-6.13,0,*6E
1528481299.5,57520,21.75,74240.0,5.61,0.17,-6.05,0,*62
1528481300.71,57521,21.75,74240.8,5.61,0.25,-6.05,0,*62
1528481301.93,57522,21.75,74238.0,5.61,0.25,-6.05,0,*61
1528481303.14,57523,21.69,74236.0,5.61,0.25,-6.05,0,*60
1528481304.35,57524,21.75,74238.8,5.61,0.17,-6.13,0,*61
1528481305.56,57525,21.75,74242.8,5.61,0.17,-6.05,0,*67
1528481306.78,57526,21.75,74238.8,5.61,0.17,-6.05,0,*64
1528481307.99,57527,21.75,74236.3,5.61,0.17,-6.13,0,*62
1528481309.2,57528,21.75,74238.3,5.61,0.17,-6.05,0,*6A
1528481310.41,57529,21.75,74240.8,5.61,0.17,-6.13,0,*6C
1528481311.62,57530,21.75,74238.8,5.61,0.13,-6.05,0,*67
1528481312.83,57531,21.75,74242.5,5.61,0.17,-6.05,0,*62
1528481314.04,57532,21.69,74234.5,5.61,0.17,-6.05,0,*61
1528481315.25,57533,21.75,74238.5,5.61,0.17,-6.13,0,*67
1528481316.45,57534,21.75,74236.8,5.61,0.05,-6.13,0,*53
1528481317.64,57535,21.75,74238.8,5.61,0.05,-6.13,0,*52
1528481318.83,57536,21.75,74236.3,5.61,0.05,-6.05,0,*56
1528481320.02,57537,21.75,74236.0,5.61,0.05,-6.13,0,*50
1528481321.21,57538,21.69,74238.0,5.61,0.05,-6.13,0,*5F
1528481322.38,57539,21.75,74238.5,5.59,0.05,-6.13,0,*55
1528481323.57,57540,21.75,74240.0,5.59,0.01,-6.19,0,*55
1528481324.77,57541,21.75,74236.3,5.59,0.09,-6.19,0,*5C